TimeCST,TemperatureF,Dew PointF,Humidity,Sea Level PressureIn,VisibilityMPH,Wind Direction,Wind SpeedMPH,Gust SpeedMPH,PrecipitationIn,Events,Conditions,WindDirDegrees,DateUTC
12:54 AM,16.0,12.9,88,30.01,8.0,Calm,Calm,-,0.00,,Overcast,0,2014-02-16 06:54:00
1:33 AM,17.1,12.9,84,29.96,8.0,WNW,4.6,-,N/A,,Overcast,290,2014-02-16 07:33:00
1:54 AM,17.1,12.9,84,30.01,8.0,WNW,5.8,-,N/A,,Overcast,290,2014-02-16 07:54:00
2:54 AM,17.1,12.9,84,30.00,7.0,NNW,8.1,-,N/A,,Overcast,330,2014-02-16 08:54:00
3:54 AM,18.0,12.9,81,30.01,7.0,NNW,12.7,-,N/A,,Overcast,340,2014-02-16 09:54:00
4:54 AM,18.0,12.9,81,30.06,7.0,NNW,12.7,-,N/A,,Overcast,340,2014-02-16 10:54:00
5:54 AM,17.1,12.0,81,30.09,8.0,NW,9.2,-,N/A,,Mostly Cloudy,320,2014-02-16 11:54:00
6:54 AM,12.9,9.0,84,30.11,7.0,North,8.1,-,N/A,,Scattered Clouds,350,2014-02-16 12:54:00
7:54 AM,10.9,8.1,88,30.18,7.0,West,8.1,-,N/A,,Partly Cloudy,280,2014-02-16 13:54:00
8:54 AM,15.1,9.0,77,30.21,7.0,NW,10.4,-,N/A,,Clear,320,2014-02-16 14:54:00
9:54 AM,18.0,10.9,74,30.22,8.0,North,11.5,-,N/A,,Overcast,350,2014-02-16 15:54:00
10:35 AM,19.9,12.0,71,30.20,10.0,NNW,12.7,-,N/A,,Scattered Clouds,340,2014-02-16 16:35:00
10:54 AM,19.9,12.0,71,30.24,10.0,NNW,13.8,-,N/A,,Partly Cloudy,340,2014-02-16 16:54:00
11:54 AM,23.0,12.0,63,30.24,10.0,North,10.4,-,N/A,,Clear,350,2014-02-16 17:54:00
12:54 PM,23.0,10.9,60,30.24,10.0,North,9.2,-,N/A,,Partly Cloudy,350,2014-02-16 18:54:00
1:54 PM,24.1,12.0,60,30.23,10.0,North,10.4,-,N/A,,Scattered Clouds,350,2014-02-16 19:54:00
2:54 PM,25.0,10.9,55,30.25,10.0,North,5.8,-,N/A,,Scattered Clouds,10,2014-02-16 20:54:00
3:54 PM,21.9,12.0,66,30.27,10.0,ENE,8.1,-,N/A,,Mostly Cloudy,70,2014-02-16 21:54:00
4:54 PM,19.9,10.9,68,30.29,10.0,ENE,5.8,-,N/A,,Overcast,70,2014-02-16 22:54:00
5:54 PM,18.0,9.0,68,30.29,10.0,ENE,4.6,-,N/A,,Overcast,70,2014-02-16 23:54:00
6:54 PM,16.0,8.1,71,30.31,10.0,Calm,Calm,-,N/A,,Overcast,0,2014-02-17 00:54:00
7:54 PM,16.0,9.0,74,30.30,10.0,ENE,5.8,-,N/A,,Overcast,70,2014-02-17 01:54:00
8:54 PM,18.0,10.9,74,30.31,10.0,East,6.9,-,N/A,,Overcast,100,2014-02-17 02:54:00
9:54 PM,19.0,12.0,74,30.30,10.0,ESE,8.1,-,N/A,,Overcast,110,2014-02-17 03:54:00
10:25 PM,19.9,12.9,74,30.25,10.0,ESE,8.1,-,N/A,,Overcast,120,2014-02-17 04:25:00
10:54 PM,19.9,12.9,74,30.28,10.0,ESE,8.1,-,N/A,,Overcast,110,2014-02-17 04:54:00
11:54 PM,19.9,14.0,78,30.27,10.0,ESE,8.1,-,N/A,,Overcast,120,2014-02-17 05:54:00